UAE517 VIDP-OMDB

Flight info

Callsign UAE517
Flight time 2h 42m
Altitude 38000
Route SURAM7D SURAM G333 MERUN G452 RK G214 BIREX/N0479F400 G214 BIVIN R462 VUSET A454 PASOV B540 KUPMA/N0452F240 B540 MIVEK P574 IMPED
Aircraft B77W/H-SDE1E2E3FGHIJ2J3J4J5M1RWXY/LB1D1

Departure

Time 2026-04-25 15:35
Airport Indira Gandhi International Airport (VIDP)

Arrival

Time 2026-04-25 18:17
Airport Dubai International Airport (OMDB)
Time Latitude Longitude Altitude Speed Heading
2026-04-25 14:22 28.55643 77.08176 783 ft 0 kts 149°
2026-04-25 15:08 28.55648 77.08173 783 ft 2 kts 150°
2026-04-25 15:08 28.55661 77.08165 783 ft 2 kts 157°
2026-04-25 15:08 28.55675 77.08159 783 ft 2 kts 162°
2026-04-25 15:09 28.55689 77.08154 783 ft 2 kts 167°
2026-04-25 15:09 28.55704 77.08151 783 ft 2 kts 173°
2026-04-25 15:09 28.55734 77.08150 783 ft 2 kts 183°
2026-04-25 15:10 28.55749 77.08151 783 ft 2 kts 188°
2026-04-25 15:10 28.55763 77.08154 783 ft 2 kts 193°
2026-04-25 15:10 28.55772 77.08157 783 ft 0 kts 195°
2026-04-25 15:16 28.55733 77.08144 783 ft 6 kts 195°
2026-04-25 15:17 28.55683 77.08076 783 ft 6 kts 239°
2026-04-25 15:17 28.55657 77.08028 783 ft 7 kts 239°
2026-04-25 15:17 28.55630 77.07973 783 ft 7 kts 245°
2026-04-25 15:18 28.55622 77.07914 783 ft 7 kts 260°
2026-04-25 15:18 28.55528 77.07841 783 ft 13 kts 195°
2026-04-25 15:18 28.55439 77.07814 783 ft 12 kts 195°
2026-04-25 15:19 28.55354 77.07789 783 ft 12 kts 195°
2026-04-25 15:19 28.55328 77.07780 783 ft 11 kts 195°
2026-04-25 15:19 28.55199 77.07745 783 ft 10 kts 187°
2026-04-25 15:19 28.55132 77.07779 783 ft 11 kts 127°
2026-04-25 15:20 28.55106 77.07865 783 ft 13 kts 104°
2026-04-25 15:20 28.55073 77.08006 783 ft 23 kts 104°
2026-04-25 15:20 28.55033 77.08179 783 ft 22 kts 104°
2026-04-25 15:20 28.54994 77.08347 783 ft 21 kts 105°
2026-04-25 15:21 28.54957 77.08505 783 ft 20 kts 105°
2026-04-25 15:21 28.54922 77.08654 783 ft 18 kts 105°
2026-04-25 15:21 28.54890 77.08791 783 ft 17 kts 105°
2026-04-25 15:21 28.54864 77.08903 784 ft 11 kts 103°
2026-04-25 15:22 28.54847 77.08987 784 ft 10 kts 105°
2026-04-25 15:22 28.54841 77.09010 784 ft 0 kts 105°
2026-04-25 15:24 28.54836 77.09034 784 ft 7 kts 105°
2026-04-25 15:24 28.54817 77.09111 783 ft 12 kts 105°
2026-04-25 15:24 28.54810 77.09142 784 ft 11 kts 105°
2026-04-25 15:25 28.54770 77.09319 784 ft 16 kts 104°
2026-04-25 15:25 28.54741 77.09446 784 ft 16 kts 104°
2026-04-25 15:25 28.54714 77.09565 784 ft 15 kts 104°
2026-04-25 15:25 28.54688 77.09679 784 ft 14 kts 104°
2026-04-25 15:26 28.54663 77.09785 784 ft 13 kts 105°
2026-04-25 15:26 28.54639 77.09891 784 ft 15 kts 105°
2026-04-25 15:26 28.54609 77.10010 784 ft 15 kts 105°
2026-04-25 15:26 28.54583 77.10127 784 ft 14 kts 104°
2026-04-25 15:27 28.54558 77.10234 784 ft 13 kts 104°
2026-04-25 15:27 28.54531 77.10354 784 ft 16 kts 104°
2026-04-25 15:27 28.54478 77.10563 784 ft 8 kts 124°
2026-04-25 15:28 28.54433 77.10587 784 ft 7 kts 182°
2026-04-25 15:28 28.54431 77.10587 784 ft 0 kts 183°
2026-04-25 15:31 28.54424 77.10586 784 ft 2 kts 187°
2026-04-25 15:31 28.54398 77.10581 784 ft 5 kts 190°
2026-04-25 15:31 28.54355 77.10572 784 ft 7 kts 193°
2026-04-25 15:31 28.54297 77.10555 784 ft 8 kts 194°
2026-04-25 15:32 28.54276 77.10549 784 ft 5 kts 194°
2026-04-25 15:32 28.54243 77.10537 784 ft 4 kts 211°
2026-04-25 15:32 28.54227 77.10501 784 ft 6 kts 269°
2026-04-25 15:33 28.54237 77.10435 784 ft 0 kts 283°
2026-04-25 15:34 28.54238 77.10426 784 ft 6 kts 283°
2026-04-25 15:34 28.54308 77.10103 784 ft 90 kts 284°
2026-04-25 15:34 28.54532 77.09055 800 ft 181 kts 283°
2026-04-25 15:34 28.54634 77.08579 944 ft 193 kts 283°
2026-04-25 15:35 28.55178 77.04452 3276 ft 215 kts 258°
2026-04-25 15:35 28.54730 77.02844 3979 ft 222 kts 252°
2026-04-25 15:35 28.54291 77.01150 4601 ft 224 kts 256°
2026-04-25 15:36 28.53436 76.97364 4672 ft 286 kts 256°
2026-04-25 15:36 28.52927 76.95047 4427 ft 303 kts 256°
2026-04-25 15:36 28.52425 76.92768 4308 ft 292 kts 256°
2026-04-25 15:37 28.51944 76.90579 4322 ft 276 kts 256°
2026-04-25 15:37 28.51490 76.88520 4311 ft 262 kts 258°
2026-04-25 15:37 28.51414 76.86530 4288 ft 248 kts 278°
2026-04-25 15:37 28.51736 76.84647 4280 ft 234 kts 281°
2026-04-25 15:38 28.51872 76.82861 4268 ft 221 kts 272°
2026-04-25 15:38 28.51911 76.81158 4257 ft 208 kts 271°
2026-04-25 15:38 28.51943 76.79569 4233 ft 195 kts 272°
2026-04-25 15:38 28.51978 76.78045 4008 ft 195 kts 272°
2026-04-25 15:39 28.52014 76.76475 3611 ft 204 kts 272°
2026-04-25 15:39 28.52049 76.74842 3349 ft 211 kts 272°
2026-04-25 15:39 28.52089 76.72945 3998 ft 261 kts 272°
2026-04-25 15:39 28.52134 76.70988 5240 ft 253 kts 272°
2026-04-25 15:40 28.52183 76.68929 5879 ft 269 kts 272°
2026-04-25 15:40 28.52197 76.68213 6115 ft 273 kts 271°
2026-04-25 15:40 28.52270 76.64601 7570 ft 281 kts 272°
2026-04-25 15:40 28.52319 76.62390 8441 ft 285 kts 271°
2026-04-25 15:41 28.52365 76.60149 9314 ft 289 kts 271°
2026-04-25 15:41 28.52412 76.57849 10163 ft 294 kts 271°
2026-04-25 15:41 28.52462 76.55470 10734 ft 310 kts 271°
2026-04-25 15:41 28.52512 76.52988 11293 ft 327 kts 271°
2026-04-25 15:42 28.52566 76.50323 11892 ft 343 kts 271°
2026-04-25 15:42 28.52620 76.47572 12501 ft 358 kts 271°
2026-04-25 15:42 28.52678 76.44698 13122 ft 373 kts 271°
2026-04-25 15:42 28.52736 76.41719 13742 ft 388 kts 271°
2026-04-25 15:43 28.52795 76.38631 14418 ft 400 kts 271°
2026-04-25 15:43 28.52856 76.35413 15300 ft 407 kts 271°
2026-04-25 15:43 28.52917 76.32196 16237 ft 412 kts 271°
2026-04-25 15:43 28.52977 76.28941 17145 ft 417 kts 271°
2026-04-25 15:44 28.53037 76.25651 18024 ft 423 kts 271°
2026-04-25 15:44 28.53098 76.22295 18901 ft 428 kts 271°
2026-04-25 15:44 28.53158 76.18922 19756 ft 434 kts 271°
2026-04-25 15:44 28.53218 76.15470 20600 ft 439 kts 271°
2026-04-25 15:45 28.53258 76.13184 21143 ft 443 kts 271°
2026-04-25 15:45 28.53338 76.08478 22226 ft 450 kts 271°
2026-04-25 15:45 28.53397 76.04906 23018 ft 455 kts 271°
2026-04-25 15:45 28.53416 76.03748 23268 ft 457 kts 271°
2026-04-25 15:46 28.53515 75.97698 24502 ft 465 kts 271°
2026-04-25 15:46 28.53574 75.93984 25235 ft 470 kts 271°
2026-04-25 15:46 28.53632 75.90275 25945 ft 475 kts 271°
2026-04-25 15:46 28.53690 75.86525 26649 ft 480 kts 271°
2026-04-25 15:47 28.53747 75.82732 27346 ft 485 kts 271°
2026-04-25 15:47 28.53804 75.78878 28037 ft 490 kts 271°
2026-04-25 15:47 28.53861 75.74993 28711 ft 495 kts 271°
2026-04-25 15:47 28.53916 75.71109 29412 ft 498 kts 271°
2026-04-25 15:48 28.53970 75.67207 30326 ft 496 kts 271°
2026-04-25 15:48 28.54024 75.63298 31350 ft 491 kts 271°
2026-04-25 15:48 28.54075 75.59466 32278 ft 487 kts 271°
2026-04-25 15:48 28.54125 75.55651 33069 ft 485 kts 271°
2026-04-25 15:49 28.54174 75.51787 33799 ft 484 kts 271°
2026-04-25 15:49 28.54221 75.48003 34512 ft 483 kts 271°
2026-04-25 15:49 28.54268 75.44214 35239 ft 481 kts 271°
2026-04-25 15:49 28.54313 75.40420 35884 ft 480 kts 271°
2026-04-25 15:50 28.54343 75.37891 36259 ft 480 kts 271°
2026-04-25 15:50 28.54401 75.32853 36948 ft 480 kts 271°
2026-04-25 15:50 28.54443 75.29078 37467 ft 480 kts 271°
2026-04-25 15:50 28.54485 75.25298 37767 ft 483 kts 271°
2026-04-25 15:51 28.54538 75.20212 37785 ft 482 kts 271°
2026-04-25 15:51 28.54639 75.10118 37786 ft 480 kts 271°
2026-04-25 15:52 28.54710 75.02563 37786 ft 480 kts 271°
2026-04-25 15:52 28.54777 74.94968 37786 ft 480 kts 271°
2026-04-25 15:53 28.54839 74.87415 37786 ft 480 kts 271°
2026-04-25 15:53 28.54897 74.79882 37786 ft 480 kts 271°
2026-04-25 15:54 28.54951 74.72322 37786 ft 480 kts 271°
2026-04-25 15:54 28.55001 74.64719 37785 ft 480 kts 271°
2026-04-25 15:55 28.55047 74.57207 37786 ft 480 kts 271°
2026-04-25 15:55 28.55087 74.49633 37786 ft 480 kts 271°
2026-04-25 15:56 28.55124 74.42041 37784 ft 480 kts 271°
2026-04-25 15:56 28.55157 74.34471 37781 ft 480 kts 270°
2026-04-25 15:57 28.55186 74.26950 37780 ft 480 kts 270°
2026-04-25 15:57 28.55212 74.19350 37778 ft 480 kts 270°
2026-04-25 15:58 28.55232 74.11814 37778 ft 480 kts 270°
2026-04-25 15:58 28.55249 74.04242 37777 ft 480 kts 270°
2026-04-25 15:59 28.55261 73.96668 37776 ft 480 kts 270°
2026-04-25 15:59 28.55269 73.89082 37775 ft 480 kts 270°
2026-04-25 16:00 28.55272 73.84088 37774 ft 480 kts 270°
2026-04-25 16:00 28.55148 73.74000 37774 ft 480 kts 267°
2026-04-25 16:01 28.54800 73.66430 37772 ft 480 kts 267°
2026-04-25 16:01 28.54461 73.58865 37772 ft 480 kts 267°
2026-04-25 16:02 28.54126 73.51324 37773 ft 480 kts 268°
2026-04-25 16:02 28.53791 73.43747 37773 ft 480 kts 268°
2026-04-25 16:03 28.53456 73.36196 37773 ft 480 kts 268°
2026-04-25 16:03 28.53118 73.28662 37775 ft 480 kts 267°
2026-04-25 16:04 28.52774 73.21082 37774 ft 480 kts 267°
2026-04-25 16:04 28.52429 73.13514 37772 ft 480 kts 267°
2026-04-25 16:05 28.52080 73.05992 37769 ft 480 kts 267°
2026-04-25 16:05 28.51721 72.98347 37767 ft 491 kts 267°
2026-04-25 16:06 28.51539 72.94491 37766 ft 498 kts 267°
2026-04-25 16:06 28.51156 72.86652 37763 ft 497 kts 267°
2026-04-25 16:07 28.50778 72.78799 37761 ft 497 kts 267°
2026-04-25 16:07 28.50399 72.70980 37759 ft 497 kts 267°
2026-04-25 16:08 28.50014 72.63161 37757 ft 497 kts 267°
2026-04-25 16:08 28.49623 72.55329 37756 ft 497 kts 267°
2026-04-25 16:09 28.49229 72.47544 37754 ft 497 kts 267°
2026-04-25 16:09 28.48830 72.39723 37754 ft 497 kts 267°
2026-04-25 16:10 28.48423 72.31865 37755 ft 497 kts 266°
2026-04-25 16:10 28.48014 72.24082 37754 ft 497 kts 266°
2026-04-25 16:11 28.47617 72.16267 37754 ft 497 kts 266°
2026-04-25 16:11 28.47216 72.08440 37754 ft 497 kts 266°
2026-04-25 16:12 28.46811 72.00626 37754 ft 497 kts 266°
2026-04-25 16:12 28.46401 71.92797 37753 ft 497 kts 266°
2026-04-25 16:13 28.45985 71.84963 37753 ft 497 kts 266°
2026-04-25 16:13 28.45568 71.77191 37753 ft 497 kts 266°
2026-04-25 16:14 28.45143 71.69359 37752 ft 497 kts 266°
2026-04-25 16:14 28.44714 71.61542 37750 ft 497 kts 266°
2026-04-25 16:15 28.44284 71.53770 37747 ft 497 kts 266°
2026-04-25 16:15 28.43845 71.45931 37746 ft 497 kts 266°
2026-04-25 16:16 28.43404 71.38134 37746 ft 497 kts 266°
2026-04-25 16:16 28.42957 71.30317 37747 ft 497 kts 266°
2026-04-25 16:17 28.42508 71.22524 37747 ft 497 kts 266°
2026-04-25 16:17 28.42053 71.14719 37747 ft 497 kts 266°
2026-04-25 16:18 28.41592 71.06880 37748 ft 497 kts 266°
2026-04-25 16:18 28.41128 70.99085 37748 ft 497 kts 266°
2026-04-25 16:19 28.40659 70.91261 37747 ft 497 kts 266°
2026-04-25 16:19 28.40186 70.83469 37746 ft 497 kts 266°
2026-04-25 16:20 28.39469 70.71757 37744 ft 497 kts 266°
2026-04-25 16:21 28.38742 70.60067 37743 ft 497 kts 266°
2026-04-25 16:21 28.38252 70.52271 37742 ft 497 kts 266°
2026-04-25 16:22 28.37758 70.44491 37740 ft 497 kts 266°
2026-04-25 16:22 28.37257 70.36659 37742 ft 497 kts 266°
2026-04-25 16:23 28.36522 70.28928 37742 ft 497 kts 257°
2026-04-25 16:23 28.34125 70.21575 37748 ft 498 kts 245°
2026-04-25 16:24 28.31129 70.14490 37743 ft 498 kts 245°
2026-04-25 16:24 28.28118 70.07434 37743 ft 498 kts 244°
2026-04-25 16:25 28.25107 70.00407 37742 ft 498 kts 244°
2026-04-25 16:25 28.22080 69.93367 37743 ft 498 kts 244°
2026-04-25 16:26 28.19054 69.86344 37742 ft 498 kts 244°
2026-04-25 16:26 28.16008 69.79290 37741 ft 498 kts 244°
2026-04-25 16:27 28.12967 69.72263 37741 ft 498 kts 244°
2026-04-25 16:27 28.09928 69.65250 37741 ft 498 kts 244°
2026-04-25 16:28 28.06888 69.58248 37741 ft 498 kts 244°
2026-04-25 16:28 28.03835 69.51231 37742 ft 498 kts 244°
2026-04-25 16:29 28.00764 69.44183 37741 ft 498 kts 244°
2026-04-25 16:29 27.97721 69.37213 37741 ft 498 kts 244°
2026-04-25 16:30 27.94643 69.30175 37742 ft 498 kts 244°
2026-04-25 16:30 27.91578 69.23178 37741 ft 498 kts 244°
2026-04-25 16:31 27.88501 69.16205 37740 ft 498 kts 244°
2026-04-25 16:31 27.85408 69.09229 37740 ft 498 kts 244°
2026-04-25 16:32 27.82301 69.02227 37739 ft 498 kts 244°
2026-04-25 16:32 27.79206 68.95264 37739 ft 498 kts 244°
2026-04-25 16:33 27.76092 68.88271 37739 ft 498 kts 244°
2026-04-25 16:33 27.73042 68.81275 37734 ft 498 kts 248°
2026-04-25 16:34 27.71272 68.73789 37742 ft 497 kts 260°
2026-04-25 16:34 27.70025 68.66128 37738 ft 497 kts 260°
2026-04-25 16:35 27.68782 68.58498 37738 ft 497 kts 260°
2026-04-25 16:35 27.67524 68.50820 37738 ft 497 kts 260°
2026-04-25 16:36 27.66266 68.43172 37737 ft 497 kts 260°
2026-04-25 16:36 27.65011 68.35583 37736 ft 497 kts 260°
2026-04-25 16:37 27.63744 68.27939 37737 ft 497 kts 259°
2026-04-25 16:37 27.62470 68.20284 37737 ft 497 kts 259°
2026-04-25 16:38 27.61196 68.12659 37735 ft 497 kts 259°
2026-04-25 16:38 27.59911 68.04994 37734 ft 497 kts 259°
2026-04-25 16:39 27.58629 67.97373 37733 ft 497 kts 259°
2026-04-25 16:39 27.57336 67.89726 37732 ft 497 kts 259°
2026-04-25 16:40 27.56048 67.82127 37732 ft 497 kts 259°
2026-04-25 16:40 27.54750 67.74488 37730 ft 497 kts 259°
2026-04-25 16:41 27.52769 67.67033 37736 ft 498 kts 252°
2026-04-25 16:41 27.49424 67.55980 37747 ft 498 kts 252°
2026-04-25 16:42 27.47202 67.48656 37752 ft 498 kts 252°
2026-04-25 16:42 27.44965 67.41303 37795 ft 497 kts 252°
2026-04-25 16:43 27.42718 67.33930 37842 ft 498 kts 251°
2026-04-25 16:43 27.40478 67.26598 37887 ft 498 kts 251°
2026-04-25 16:44 27.38236 67.19275 37920 ft 497 kts 251°
2026-04-25 16:44 27.35986 67.11940 37943 ft 498 kts 251°
2026-04-25 16:45 27.33727 67.04592 37961 ft 498 kts 251°
2026-04-25 16:45 27.31463 66.97244 37973 ft 498 kts 251°
2026-04-25 16:46 27.29203 66.89922 37967 ft 497 kts 251°
2026-04-25 16:46 27.27698 66.85056 37964 ft 497 kts 251°
2026-04-25 16:47 27.24666 66.75272 37963 ft 497 kts 251°
2026-04-25 16:47 27.22393 66.67956 37972 ft 497 kts 251°
2026-04-25 16:48 27.20114 66.60633 37983 ft 498 kts 251°
2026-04-25 16:48 27.17833 66.53317 37990 ft 498 kts 251°
2026-04-25 16:49 27.15559 66.46045 37992 ft 498 kts 251°
2026-04-25 16:49 27.13261 66.38706 37989 ft 498 kts 251°
2026-04-25 16:50 27.10974 66.31419 37990 ft 498 kts 251°
2026-04-25 16:50 27.08679 66.24125 37992 ft 498 kts 251°
2026-04-25 16:51 27.06366 66.16787 38000 ft 498 kts 251°
2026-04-25 16:51 27.04836 66.11940 38010 ft 497 kts 251°
2026-04-25 16:52 27.01758 66.02212 38037 ft 497 kts 251°
2026-04-25 16:52 26.99441 65.94906 38054 ft 498 kts 251°
2026-04-25 16:53 26.95975 65.84006 38028 ft 498 kts 251°
2026-04-25 16:54 26.93657 65.76733 38006 ft 498 kts 251°
2026-04-25 16:54 26.91326 65.69437 37981 ft 498 kts 251°
2026-04-25 16:55 26.88997 65.62158 37960 ft 498 kts 251°
2026-04-25 16:55 26.86669 65.54899 37946 ft 498 kts 251°
2026-04-25 16:56 26.84319 65.47585 37941 ft 497 kts 251°
2026-04-25 16:56 26.81987 65.40340 37975 ft 498 kts 251°
2026-04-25 16:57 26.79637 65.33056 38019 ft 497 kts 250°
2026-04-25 16:57 26.77294 65.25807 38068 ft 497 kts 250°
2026-04-25 16:58 26.74951 65.18572 38077 ft 498 kts 250°
2026-04-25 16:58 26.72599 65.11325 38033 ft 498 kts 250°
2026-04-25 16:59 26.70235 65.04053 37992 ft 498 kts 250°
2026-04-25 16:59 26.67856 64.96751 38004 ft 503 kts 250°
2026-04-25 16:59 26.66664 64.93100 38369 ft 503 kts 250°
2026-04-25 17:00 26.65475 64.89453 38972 ft 499 kts 250°
2026-04-25 17:00 26.64291 64.85832 39532 ft 495 kts 250°
2026-04-25 17:00 26.63114 64.82237 39923 ft 495 kts 250°
2026-04-25 17:01 26.60749 64.75019 39996 ft 497 kts 250°
2026-04-25 17:01 26.58367 64.67765 39996 ft 497 kts 250°
2026-04-25 17:02 26.55992 64.60548 39993 ft 497 kts 250°
2026-04-25 17:02 26.53613 64.53330 39991 ft 497 kts 250°
2026-04-25 17:03 26.51234 64.46129 39984 ft 497 kts 250°
2026-04-25 17:03 26.48852 64.38930 39963 ft 497 kts 250°
2026-04-25 17:04 26.46449 64.31683 39944 ft 497 kts 250°
2026-04-25 17:04 26.44063 64.24500 39924 ft 497 kts 250°
2026-04-25 17:05 26.41653 64.17261 39918 ft 497 kts 250°
2026-04-25 17:05 26.38046 64.06450 39912 ft 497 kts 250°
2026-04-25 17:06 26.35645 63.99270 39905 ft 497 kts 250°
2026-04-25 17:06 26.33240 63.92092 39899 ft 497 kts 250°
2026-04-25 17:07 26.30823 63.84895 39896 ft 497 kts 250°
2026-04-25 17:07 26.28408 63.77713 39893 ft 497 kts 250°
2026-04-25 17:08 26.25977 63.70501 39886 ft 497 kts 250°
2026-04-25 17:08 26.23555 63.63326 39867 ft 497 kts 250°
2026-04-25 17:09 26.21135 63.56172 39850 ft 497 kts 250°
2026-04-25 17:09 26.18692 63.48964 39834 ft 497 kts 250°
2026-04-25 17:10 26.16255 63.41788 39830 ft 497 kts 250°
2026-04-25 17:10 26.13827 63.34650 39825 ft 497 kts 249°
2026-04-25 17:11 26.11380 63.27470 39819 ft 497 kts 249°
2026-04-25 17:11 26.08925 63.20280 39807 ft 497 kts 249°
2026-04-25 17:12 26.06473 63.13111 39794 ft 497 kts 249°
2026-04-25 17:12 26.04029 63.05978 39780 ft 497 kts 249°
2026-04-25 17:13 26.02380 63.01174 39770 ft 497 kts 249°
2026-04-25 17:13 25.98090 62.92234 39751 ft 498 kts 231°
2026-04-25 17:14 25.93539 62.86385 39748 ft 499 kts 229°
2026-04-25 17:14 25.88954 62.80644 39744 ft 499 kts 229°
2026-04-25 17:15 25.84340 62.74903 39740 ft 499 kts 229°
2026-04-25 17:15 25.79707 62.69163 39740 ft 499 kts 229°
2026-04-25 17:16 25.75091 62.63461 39738 ft 499 kts 229°
2026-04-25 17:16 25.70459 62.57750 39736 ft 499 kts 229°
2026-04-25 17:17 25.65838 62.52062 39738 ft 499 kts 229°
2026-04-25 17:17 25.61183 62.46342 39741 ft 499 kts 229°
2026-04-25 17:18 25.56569 62.40680 39744 ft 499 kts 229°
2026-04-25 17:18 25.51914 62.34975 39748 ft 499 kts 228°
2026-04-25 17:19 25.47288 62.29312 39752 ft 499 kts 228°
2026-04-25 17:19 25.42637 62.23626 39748 ft 499 kts 228°
2026-04-25 17:20 25.37963 62.17921 39742 ft 499 kts 228°
2026-04-25 17:20 25.33337 62.12280 39737 ft 499 kts 228°
2026-04-25 17:21 25.28660 62.06583 39733 ft 499 kts 228°
2026-04-25 17:21 25.23996 62.00910 39728 ft 499 kts 228°
2026-04-25 17:22 25.20899 61.97147 39728 ft 499 kts 228°
2026-04-25 17:22 25.14680 61.89600 39726 ft 499 kts 228°
2026-04-25 17:23 25.10025 61.83957 39725 ft 499 kts 228°
2026-04-25 17:23 25.05830 61.77913 39720 ft 497 kts 242°
2026-04-25 17:24 25.02911 61.71030 39724 ft 497 kts 246°
2026-04-25 17:24 25.00111 61.64095 39724 ft 497 kts 246°
2026-04-25 17:25 24.97299 61.57152 39724 ft 497 kts 246°
2026-04-25 17:25 24.94468 61.50182 39724 ft 497 kts 246°
2026-04-25 17:26 24.91661 61.43238 39723 ft 497 kts 247°
2026-04-25 17:26 24.88896 61.36314 39723 ft 497 kts 247°
2026-04-25 17:27 24.86436 61.30167 39725 ft 497 kts 246°
2026-04-25 17:27 24.84584 61.25547 39725 ft 497 kts 246°
2026-04-25 17:28 24.80875 61.16313 39725 ft 497 kts 246°
2026-04-25 17:28 24.78069 61.09341 39724 ft 497 kts 246°
2026-04-25 17:29 24.75284 61.02432 39724 ft 497 kts 246°
2026-04-25 17:29 24.72483 60.95497 39724 ft 497 kts 246°
2026-04-25 17:30 24.69646 60.88573 39725 ft 497 kts 245°
2026-04-25 17:30 24.66672 60.81702 39724 ft 497 kts 245°
2026-04-25 17:31 24.63706 60.74855 39724 ft 497 kts 245°
2026-04-25 17:31 24.60750 60.68029 39724 ft 497 kts 245°
2026-04-25 17:32 24.57776 60.61167 39724 ft 497 kts 245°
2026-04-25 17:32 24.54814 60.54345 39723 ft 497 kts 245°
2026-04-25 17:33 24.51844 60.47515 39723 ft 497 kts 245°
2026-04-25 17:33 24.48878 60.40701 39723 ft 497 kts 245°
2026-04-25 17:34 24.45898 60.33868 39724 ft 497 kts 245°
2026-04-25 17:34 24.42920 60.27046 39725 ft 497 kts 245°
2026-04-25 17:35 24.39931 60.20209 39725 ft 497 kts 245°
2026-04-25 17:35 24.36936 60.13370 39725 ft 497 kts 245°
2026-04-25 17:36 24.33955 60.06573 39724 ft 497 kts 245°
2026-04-25 17:36 24.30970 59.99773 39724 ft 497 kts 245°
2026-04-25 17:37 24.27972 59.92954 39724 ft 497 kts 245°
2026-04-25 17:37 24.24960 59.86113 39724 ft 497 kts 245°
2026-04-25 17:38 24.22957 59.81569 39724 ft 497 kts 245°
2026-04-25 17:38 24.18961 59.72519 39724 ft 497 kts 245°
2026-04-25 17:39 24.15964 59.65743 39724 ft 497 kts 245°
2026-04-25 17:39 24.12934 59.58902 39724 ft 497 kts 245°
2026-04-25 17:40 24.09915 59.52098 39724 ft 497 kts 245°
2026-04-25 17:40 24.06901 59.45315 39723 ft 497 kts 245°
2026-04-25 17:41 24.03892 59.38559 39723 ft 497 kts 245°
2026-04-25 17:41 24.00865 59.31771 39725 ft 497 kts 244°
2026-04-25 17:42 23.97823 59.24954 39725 ft 497 kts 244°
2026-04-25 17:42 23.95321 59.17992 39718 ft 496 kts 257°
2026-04-25 17:43 23.94734 59.10530 39718 ft 496 kts 274°
2026-04-25 17:43 23.96168 59.03188 39725 ft 496 kts 288°
2026-04-25 17:44 23.98430 58.96075 39724 ft 496 kts 289°
2026-04-25 17:44 24.00699 58.88985 39724 ft 496 kts 289°
2026-04-25 17:45 24.02222 58.84221 39724 ft 496 kts 289°
2026-04-25 17:45 24.05237 58.74773 39724 ft 496 kts 289°
2026-04-25 17:46 24.07511 58.67635 39723 ft 496 kts 289°
2026-04-25 17:46 24.09769 58.60530 39723 ft 496 kts 289°
2026-04-25 17:47 24.12018 58.53444 39723 ft 496 kts 289°
2026-04-25 17:47 24.14275 58.46318 39723 ft 496 kts 289°
2026-04-25 17:48 24.17651 58.35638 39723 ft 496 kts 289°
2026-04-25 17:49 24.19887 58.28546 39725 ft 496 kts 289°
2026-04-25 17:49 24.22143 58.21378 39724 ft 496 kts 289°
2026-04-25 17:50 24.24374 58.14279 39724 ft 496 kts 289°
2026-04-25 17:50 24.26610 58.07149 39724 ft 496 kts 289°
2026-04-25 17:51 24.28849 57.99997 39724 ft 496 kts 289°
2026-04-25 17:51 24.31087 57.92833 39724 ft 496 kts 289°
2026-04-25 17:52 24.33306 57.85719 39724 ft 494 kts 289°
2026-04-25 17:52 24.35493 57.78692 39165 ft 486 kts 289°
2026-04-25 17:52 24.36579 57.75198 38544 ft 486 kts 289°
2026-04-25 17:53 24.37668 57.71693 37840 ft 485 kts 289°
2026-04-25 17:53 24.38749 57.68209 37135 ft 485 kts 289°
2026-04-25 17:53 24.39834 57.64711 36425 ft 485 kts 289°
2026-04-25 17:53 24.40910 57.61235 35727 ft 484 kts 289°
2026-04-25 17:54 24.41989 57.57748 35077 ft 482 kts 289°
2026-04-25 17:54 24.43049 57.54319 34598 ft 476 kts 289°
2026-04-25 17:54 24.44119 57.50856 34269 ft 479 kts 289°
2026-04-25 17:54 24.45197 57.47363 33880 ft 488 kts 289°
2026-04-25 17:55 24.46282 57.43845 33475 ft 487 kts 289°
2026-04-25 17:55 24.47365 57.40329 33073 ft 486 kts 289°
2026-04-25 17:55 24.48441 57.36835 32673 ft 486 kts 289°
2026-04-25 17:55 24.49525 57.33309 32271 ft 488 kts 288°
2026-04-25 17:56 24.50610 57.29776 31871 ft 489 kts 288°
2026-04-25 17:56 24.51696 57.26238 31471 ft 490 kts 288°
2026-04-25 17:56 24.52780 57.22703 31073 ft 491 kts 288°
2026-04-25 17:56 24.53869 57.19149 30674 ft 492 kts 288°
2026-04-25 17:57 24.54943 57.15640 30263 ft 489 kts 288°
2026-04-25 17:57 24.56020 57.12117 29841 ft 485 kts 288°
2026-04-25 17:57 24.57088 57.08623 29422 ft 481 kts 288°
2026-04-25 17:57 24.57440 57.07467 29282 ft 479 kts 288°
2026-04-25 17:58 24.59196 57.01711 28580 ft 474 kts 288°
2026-04-25 17:58 24.60235 56.98300 28162 ft 471 kts 288°
2026-04-25 17:58 24.61270 56.94899 27743 ft 469 kts 288°
2026-04-25 17:58 24.62294 56.91533 27325 ft 466 kts 288°
2026-04-25 17:59 24.63305 56.88205 26910 ft 463 kts 288°
2026-04-25 17:59 24.64402 56.84879 26478 ft 458 kts 294°
2026-04-25 17:59 24.65879 56.81800 25937 ft 453 kts 300°
2026-04-25 17:59 24.67494 56.78856 25303 ft 450 kts 301°
2026-04-25 18:00 24.69106 56.75946 24657 ft 448 kts 301°
2026-04-25 18:00 24.70713 56.73039 24005 ft 445 kts 301°
2026-04-25 18:00 24.72314 56.70142 23333 ft 443 kts 301°
2026-04-25 18:00 24.73899 56.67272 22675 ft 440 kts 301°
2026-04-25 18:01 24.75476 56.64413 22017 ft 437 kts 301°
2026-04-25 18:01 24.77058 56.61542 21357 ft 433 kts 301°
2026-04-25 18:01 24.78553 56.58734 20655 ft 432 kts 297°
2026-04-25 18:01 24.79760 56.55719 19818 ft 432 kts 292°
2026-04-25 18:02 24.80871 56.52661 19091 ft 431 kts 291°
2026-04-25 18:02 24.81885 56.49857 18474 ft 427 kts 291°
2026-04-25 18:02 24.82984 56.46816 17814 ft 424 kts 291°
2026-04-25 18:02 24.84062 56.43829 17185 ft 420 kts 291°
2026-04-25 18:03 24.85130 56.40864 16587 ft 416 kts 291°
2026-04-25 18:03 24.86180 56.37951 15969 ft 412 kts 291°
2026-04-25 18:03 24.87239 56.35014 15332 ft 409 kts 291°
2026-04-25 18:03 24.88271 56.32144 14709 ft 405 kts 291°
2026-04-25 18:04 24.89312 56.29250 14072 ft 403 kts 291°
2026-04-25 18:04 24.90326 56.26431 13463 ft 399 kts 291°
2026-04-25 18:04 24.91342 56.23603 13154 ft 387 kts 291°
2026-04-25 18:04 24.92308 56.20911 13030 ft 371 kts 291°
2026-04-25 18:05 24.93234 56.18329 12951 ft 355 kts 291°
2026-04-25 18:05 24.94121 56.15855 12747 ft 344 kts 291°
2026-04-25 18:05 24.94986 56.13438 12496 ft 336 kts 291°
2026-04-25 18:05 24.95833 56.11072 12240 ft 328 kts 291°
2026-04-25 18:06 24.96661 56.08756 11985 ft 321 kts 291°
2026-04-25 18:06 24.97470 56.06498 11727 ft 314 kts 291°
2026-04-25 18:06 24.98175 56.04270 11471 ft 308 kts 287°
2026-04-25 18:06 24.98812 56.02033 11212 ft 302 kts 287°
2026-04-25 18:07 24.99444 55.99852 10954 ft 297 kts 288°
2026-04-25 18:07 25.00084 55.97680 10720 ft 292 kts 288°
2026-04-25 18:07 25.00697 55.95616 10703 ft 278 kts 288°
2026-04-25 18:07 25.01297 55.93595 10304 ft 284 kts 288°
2026-04-25 18:08 25.01922 55.91498 9698 ft 293 kts 288°
2026-04-25 18:08 25.02565 55.89340 9044 ft 296 kts 288°
2026-04-25 18:08 25.03199 55.87208 8441 ft 294 kts 288°
2026-04-25 18:08 25.03831 55.85079 7846 ft 291 kts 288°
2026-04-25 18:09 25.04452 55.82992 7343 ft 286 kts 288°
2026-04-25 18:09 25.05068 55.80920 6939 ft 278 kts 288°
2026-04-25 18:09 25.05656 55.78938 6520 ft 272 kts 288°
2026-04-25 18:09 25.05851 55.78282 6377 ft 270 kts 288°
2026-04-25 18:10 25.06620 55.75689 5797 ft 263 kts 288°
2026-04-25 18:10 25.07363 55.73174 5197 ft 259 kts 288°
2026-04-25 18:10 25.07919 55.71292 4737 ft 255 kts 288°
2026-04-25 18:10 25.08467 55.69446 4394 ft 248 kts 288°
2026-04-25 18:11 25.08982 55.67705 4295 ft 230 kts 288°
2026-04-25 18:11 25.09461 55.66085 4241 ft 214 kts 288°
2026-04-25 18:11 25.09914 55.64553 4162 ft 205 kts 288°
2026-04-25 18:11 25.10452 55.63135 4066 ft 198 kts 298°
2026-04-25 18:12 25.11188 55.61780 3873 ft 206 kts 301°
2026-04-25 18:12 25.11945 55.60434 3837 ft 210 kts 301°
2026-04-25 18:12 25.12702 55.59077 3821 ft 210 kts 301°
2026-04-25 18:12 25.13473 55.57688 3808 ft 210 kts 301°
2026-04-25 18:13 25.14242 55.56303 3687 ft 217 kts 301°
2026-04-25 18:13 25.15068 55.54845 3052 ft 237 kts 302°
2026-04-25 18:13 25.15982 55.53306 2691 ft 241 kts 302°
2026-04-25 18:14 25.17704 55.50334 2458 ft 220 kts 302°
2026-04-25 18:14 25.18515 55.48919 1936 ft 211 kts 301°
2026-04-25 18:14 25.19239 55.47590 1595 ft 196 kts 300°
2026-04-25 18:14 25.19880 55.46374 1466 ft 165 kts 299°
2026-04-25 18:15 25.20417 55.45359 1289 ft 148 kts 300°
2026-04-25 18:15 25.20955 55.44373 1036 ft 149 kts 299°
2026-04-25 18:15 25.21467 55.43403 755 ft 146 kts 298°
2026-04-25 18:15 25.21962 55.42446 516 ft 143 kts 300°
2026-04-25 18:16 25.22470 55.41522 384 ft 138 kts 300°
2026-04-25 18:16 25.22971 55.40593 274 ft 142 kts 301°
2026-04-25 18:16 25.23947 55.38832 46 ft 113 kts 301°
2026-04-25 18:17 25.24278 55.38237 46 ft 68 kts 307°
2026-04-25 18:17 25.24471 55.37903 46 ft 46 kts 302°
2026-04-25 18:17 25.24646 55.37582 46 ft 49 kts 301°
2026-04-25 18:17 25.24769 55.37305 45 ft 34 kts 285°
2026-04-25 18:18 25.24792 55.37069 45 ft 19 kts 270°
2026-04-25 18:18 25.24792 55.37029 45 ft 0 kts 270°
2026-04-25 18:19 25.24791 55.37014 45 ft 4 kts 264°
2026-04-25 18:19 25.24778 55.36973 45 ft 8 kts 236°
2026-04-25 18:19 25.24720 55.36921 45 ft 12 kts 212°
2026-04-25 18:20 25.24630 55.36861 45 ft 18 kts 212°
2026-04-25 18:20 25.24511 55.36780 45 ft 20 kts 211°
2026-04-25 18:20 25.24403 55.36682 45 ft 19 kts 237°
2026-04-25 18:20 25.24373 55.36544 45 ft 18 kts 277°
2026-04-25 18:21 25.24412 55.36416 45 ft 17 kts 300°
2026-04-25 18:21 25.24477 55.36305 45 ft 17 kts 302°
2026-04-25 18:21 25.24538 55.36195 45 ft 16 kts 301°
2026-04-25 18:21 25.24595 55.36091 45 ft 15 kts 301°
2026-04-25 18:22 25.24653 55.35988 45 ft 15 kts 301°
2026-04-25 18:22 25.24672 55.35953 45 ft 15 kts 301°
2026-04-25 18:22 25.24765 55.35783 45 ft 15 kts 302°
2026-04-25 18:22 25.24826 55.35680 45 ft 16 kts 306°
2026-04-25 18:23 25.24899 55.35567 45 ft 18 kts 304°
2026-04-25 18:23 25.24943 55.35495 45 ft 5 kts 328°
2026-04-25 18:23 25.24984 55.35500 45 ft 7 kts 21°
2026-04-25 18:23 25.25032 55.35528 45 ft 7 kts 31°
2026-04-25 18:24 25.25071 55.35554 45 ft 2 kts 31°
2026-04-25 18:24 25.25081 55.35560 45 ft 0 kts 31°